Regional Weather Roundup
Issued by NWS Huntsville, AL

Home | Current Version | Previous Version | Text Only | Print | Product List | Glossary On
Versions: 1 2 3 4 5 6 7 8 9 10 11 12 13 14 15 16 17 18 19 20 21 22 23 24 25 26 27 28 29 30 31 32 33 34 35 36 37 38 39 40 41 42 43 44 45 46 47 48 49 50
000
ASUS44 KHUN 250610
RWRHUN

WEATHER ROUNDUP FOR THE TENNESSEE VALLEY
NATIONAL WEATHER SERVICE HUNTSVILLE AL
100 AM CDT FRI MAY 25 2018

ALZ001>004-250700-
NORTHWEST ALABAMA

CITY           SKY/WX    TMP DP  RH WIND       PRES   REMARKS
COURTLAND HCN    N/A     72 N/A N/A SW5         N/A
RUSSELLVILLE     N/A     70 N/A N/A MISG        N/A
SHOALS AIRPORT FAIR      75  69  81 W5        30.05F
6HR MIN TEMP:  75; 6HR MAX TEMP:  88;

SHOALS TVA RES   N/A     72 N/A N/A MISG        N/A
$$

ALZ005>007-016-250700-
NORTH CENTRAL ALABAMA

CITY           SKY/WX    TMP DP  RH WIND       PRES   REMARKS
CULLMAN AG STN   N/A     70 N/A N/A CALM        N/A
DECATUR AP     FAIR      74  68  81 VRB6      30.05F
6HR MIN TEMP:  72; 6HR MAX TEMP:  85;

HUNTSVILLE AP  FAIR      74  70  87 SE5       30.05S
6HR MIN TEMP:  74; 6HR MAX TEMP:  89;

MERIDIANVILLE  PTCLDY    69  67  92 CALM      30.05F
REDSTONE ARSN  MOCLDY    72  67  86 SW3       30.04F
VINEMONT AP      N/A     71  67  88 CALM      30.09F
$$

ALZ008>010-250700-
NORTHEAST ALABAMA

CITY           SKY/WX    TMP DP  RH WIND       PRES   REMARKS
ALBERTVILLE    FAIR      70  70 100 SW3       30.07S
FORT PAYNE     FAIR      72  64  78 CALM      30.06F
SCOTTSBORO AP  MOCLDY    79  72  78 VRB6      30.06F
SCOTTSBORO HCN   N/A     77 N/A N/A MISG        N/A
VALLEY HEAD      N/A     73 N/A N/A MISG        N/A
$$

TNZ076-096-097-250700-
SOUTHEASTERN MIDDLE TENNESSEE

CITY           SKY/WX    TMP DP  RH WIND       PRES   REMARKS
TULLAHOMA      PTCLDY    66  64  94 CALM      30.05F
WINCHESTER     CLOUDY    72  64  78 S3        30.06S
$$

...SURROUNDING SITES...

CITY           SKY/WX    TMP DP  RH WIND       PRES   REMARKS
ATLANTA        CLOUDY    72  68  87 E7        30.09F
ANNISTON       MOCLDY    71  69  93 SE3       30.07F
BIRMINGHAM     FAIR      69  68  96 CALM      30.08F
CHATTANOOGA    FAIR      75  65  70 SW6       30.08F
CORINTH        FAIR      73  70  88 CALM      30.04F
DALTON         FAIR      70  68  94 CALM      30.10F
GADSDEN        FAIR      70  70 100 E6        30.07S
GOLDEN TRNGL   FAIR      73  70  90 CALM      30.04F
HALEYVILLE       N/A    N/A N/A N/A MISG        N/A
JACKSON TN     FAIR      73  72  96 SW5       30.04F
MEMPHIS        LGT RAIN  73  71  93 CALM      30.03F
NASHVILLE      FAIR      71  65  81 CALM      30.05F
ROME           FAIR      73  69  87 SE5       30.07F
SELMER         MOCLDY    70  68  94 W3        30.04F
TUPELO         MOCLDY   N/A N/A N/A SE5       30.05F
TUSCALOOSA     FAIR      70  68  93 CALM      30.05F FOG
$$

...GULF COAST WEATHER...

CITY           SKY/WX    TMP DP  RH WIND       PRES   REMARKS
GULFPORT       FAIR      73  69  87 N5        30.02F
PASCAGOULA     FAIR      71  69  93 CALM      30.02F
MOBILE         FAIR      73  71  93 NE3       30.04F
GULF SHORES    FAIR      70  70 100 CALM      30.02F
PENSACOLA      FAIR      72  70  93 CALM      30.02
DESTIN         FAIR      74  72  93 CALM      30.02F
PANAMA CITY    FAIR      73  72  97 E3        30.03F
APPALACHICOLA  FAIR      70  69  97 CALM      30.03F
$$




USA.gov is the U.S. government's official web portal to all federal, state and local government web resources and services.